Content
SEND FEEDBACK

Daily
Averages
Monthly
Summary
United States of America

ST. LOUIS, MISSOURI


Home > North America > United States > Missouri
Elevation: 535 feet     Latitude: 38 45N     Longitude: 090 22W

WEATHER
 
SELECT A DAY
Number of Records: 199,614;   Date Range: 1/1/95 - 10/19/14
 
SHARE

PRINT THIS DATA

[ ← Previous Day ]
WEATHER ALMANAC - MARCH 30, 2013
[ Next Day → ]
[ °C ]   °F
Weather ElementAverageHighLow
Temperature41.1 °F54 °F (12:54 pm)33.8 °F (5:39 am)
Dewpoint38.3 °F46.4 °F (10:21 pm)32 °F (5:47 am)
Humidity90.1 %100 % (4:01 am)59 % (12:54 pm)
Barometer30.10 in30.19 in (1:52 am)29.92 in (11:54 pm)
Wind Speed1.1 mph11.5 mph (10:54 am)
Wind Gust18.4 mph (10:54 am)
Weather ElementAverage
Visibility3 mi
Wind DirectionNNE (19.6 °)

Weather ElementTotal
Precipitation0.10 in
Heating Degree Days21.1 (Base 65)
Averaged from 57 records on March 30, 2013
WEATHER CONDITIONS BREAKOUT
WIND DIRECTION BREAKOUT
WEATHER BY HOUR - MARCH 30, 2013
[ °C ]   °F
Local TimeTemperatureDewpointHumidityBarometerVisibilityWind DirectionWind SpeedGust SpeedPrecipitationEventsConditions
1:52 AM37.4 °F35.6 °F93 %30.19 in1.8 miCalmClear
1:54 AM37.0 °F35.1 °F93 %30.19 in1.0 miCalmClear
2:01 AM37.4 °F35.6 °F93 %30.19 in0.8 miCalmClear
2:05 AM37.4 °F35.6 °F93 %30.19 in2.0 miCalmClear
2:13 AM37.4 °F35.6 °F93 %30.19 in3.0 miCalmClear
2:18 AM37.4 °F35.6 °F93 %30.19 in1.8 miCalmClear
2:30 AM37.4 °F35.6 °F93 %30.19 in3.0 miCalmClear
2:37 AM37.4 °F35.6 °F93 %30.18 in1.8 miCalmClear
2:54 AM37.0 °F35.1 °F93 %30.19 in2.5 miCalmClear
3:06 AM37.4 °F35.6 °F93 %30.18 in0.8 miCalmClear
3:20 AM37.4 °F35.6 °F93 %30.18 in2.0 miCalmClear
3:27 AM35.6 °F33.8 °F93 %30.19 in4.0 miCalmClear
3:39 AM37.4 °F35.6 °F93 %30.19 in1.5 miCalmClear
3:50 AM35.6 °F33.8 °F93 %30.17 in0.8 miCalmClear
3:54 AM36.0 °F34.0 °F93 %30.18 in0.8 miCalmClear
4:01 AM35.6 °F35.6 °F100 %30.17 in1.5 miCalmClear
4:23 AM35.6 °F35.6 °F100 %30.15 in2.0 miCalmClear
4:51 AM35.6 °F33.8 °F93 %30.15 in0.8 miCalmClear
4:54 AM35.1 °F33.1 °F92 %30.16 in0.8 miCalmClear
5:05 AM35.6 °F33.8 °F93 %30.15 in0.5 miCalmFogFog
5:25 AM35.6 °F33.8 °F93 %30.15 in1.2 miCalmPartly Cloudy
5:28 AM35.6 °F33.8 °F93 %30.15 in3.0 miCalmClear
5:39 AM33.8 °F33.8 °F100 %30.15 in1.2 miCalmClear
5:42 AM33.8 °F33.8 °F100 %30.15 in0.5 miCalmFogFog
5:47 AM33.8 °F32.0 °F93 %30.15 in3.0 miCalmPartly Cloudy
5:54 AM34.0 °F33.1 °F96 %30.15 in3.0 miCalmPartly Cloudy
6:26 AM33.8 °F33.8 °F100 %30.14 in1.5 miCalmMostly Cloudy
6:54 AM34.0 °F33.1 °F96 %30.14 in0.5 miCalmFogFog
7:11 AM33.8 °F33.8 °F100 %30.14 in0.5 miCalmFogFog
7:14 AM33.8 °F33.8 °F100 %30.14 in0.2 miCalmFogFog
7:43 AM35.6 °F33.8 °F93 %30.15 in0.2 miCalmFogFog
7:51 AM35.6 °F33.8 °F93 %30.15 in0.2 miCalmFogFog
7:54 AM36.0 °F34.0 °F93 %30.16 in0.2 miCalmFogFog
8:09 AM39.2 °F37.4 °F93 %30.15 in1.0 miCalmMostly Cloudy
8:29 AM39.2 °F37.4 °F93 %30.14 in0.5 miCalmFogFog
8:54 AM42.1 °F41.0 °F96 %30.15 in2.0 miCalmHaze
9:54 AM48.0 °F43.0 °F83 %30.13 in4.0 miSSE (150°)4.6 mphHaze
10:54 AM52.0 °F39.9 °F63 %30.11 in10.0 miSE (130°)11.5 mph18.4 mphOvercast
11:54 AM53.1 °F42.1 °F66 %30.10 in10.0 miVariable6.9 mphOvercast
12:54 PM54.0 °F39.9 °F59 %30.06 in10.0 miSE (130°)11.5 mph16.1 mphMostly Cloudy
1:54 PM54.0 °F41.0 °F62 %30.05 in10.0 miSouth (180°)4.6 mphOvercast
2:54 PM54.0 °F42.1 °F64 %30.02 in10.0 miESE (110°)4.6 mphOvercast
3:54 PM51.1 °F45.0 °F80 %30.00 in7.0 miESE (120°)4.6 mph0.03 inRainLight Rain
4:54 PM50.0 °F46.0 °F86 %29.99 in3.0 miCalm0.05 inRainLight Rain
5:54 PM50.0 °F46.0 °F86 %29.97 in4.0 miEast (90°)3.5 mph0.00 inOvercast
6:54 PM48.9 °F46.0 °F90 %29.95 in5.0 miESE (110°)4.6 mph0.02 inOvercast
7:54 PM48.9 °F46.0 °F90 %29.94 in5.0 miCalmOvercast
8:41 PM48.2 °F44.6 °F87 %29.94 in5.0 miCalm0.00 inOvercast
8:54 PM48.0 °F45.0 °F89 %29.95 in5.0 miEast (100°)3.5 mph0.00 inOvercast
9:15 PM48.2 °F44.6 °F87 %29.94 in5.0 miCalmOvercast
9:54 PM48.0 °F46.0 °F93 %29.94 in4.0 miCalmOvercast
10:21 PM48.2 °F46.4 °F93 %29.94 in4.0 miCalmOvercast
10:40 PM48.2 °F44.6 °F87 %29.93 in4.0 miCalmOvercast
10:54 PM48.0 °F45.0 °F89 %29.94 in4.0 miCalmOvercast
11:06 PM48.2 °F46.4 °F93 %29.93 in4.0 miCalmOvercast
11:24 PM46.4 °F44.6 °F93 %29.93 in2.0 miCalmOvercast
11:54 PM46.9 °F45.0 °F93 %29.92 in2.5 miCalmOvercast
Hourly data recorded from KSUS, located miles away from St. Louis, Missouri







STORIES FROM OUR PARTNERS